Retour au catalogue

STARLINK-35049

ActifCommunicationsSSO
NORAD 65444·PAYLOAD·🇺🇸 United States

Lancé Sep 3, 2025 depuis Vandenberg Space Force Base

Loading…

Prochains Passages (prochaines 24 heures)

TLE

FraisSource: CelesTrak SupGP

Époque: Sep 15, 2026, 03:19 UTC

1 65444C 25194L   26258.13868056 -.00033132  00000+0 -10285-2 0  2583
2 65444  97.2846 107.8552 0001764  92.5500 356.2137 15.33455079    18

Suivez STARLINK-35049 en temps réel avec AllMySat

Download on the App Store